Location: Chequamegon National Forest
(46.1070°N, 90.8420°W)
Time: 17:18:48
(UTC-05:00)

Amateur Radio Satellites - All Passes

Search period start: 27 August 2016 16:48
Search period end: 28 August 2016 16:48
Location: Chequamegon National Forest, 46.1070°N, 90.8420°W

Satellite Date Start Highest point End Downlink Frequencies (MHz)
Time Altitude Azimuth
NOAA 18 27 Aug 16:48:52 16:51:51 15° 54° (NE) 16:54:50 137.9125
ITAMSAT 1 27 Aug 16:52:37 16:54:23 12° 273° (W) 16:56:11 435.822/435.867
SWISSCUBE 27 Aug 16:52:46 16:56:26 23° 298° (WNW) 17:00:07 437.505
CUBESAT XI-V 27 Aug 17:07:48 17:10:26 15° 89° (E) 17:13:05 437.345
BEESAT 27 Aug 17:10:19 17:13:29 18° 300° (WNW) 17:16:39 436.000
Cosmos 2491 27 Aug 17:18:44 17:25:15 24° 78° (ENE) 17:31:49 435.465 / 435.565
KKS-1 27 Aug 17:19:37 17:24:07 85° 285° (WNW) 17:28:35 437.445
MOZHAYETS 4 27 Aug 17:24:06 17:28:36 59° 287° (WNW) 17:33:06
YUBILEINY 27 Aug 17:32:27 17:41:11 63° 76° (ENE) 17:49:48 435.215
GOMX 1 27 Aug 17:36:08 17:40:39 31° 65° (ENE) 17:45:22 467.674
Cubesat XI-IV 27 Aug 17:36:12 17:40:58 34° 65° (ENE) 17:45:44 437.490
HORYU 2 27 Aug 17:42:29 17:46:47 45° 261° (W) 17:51:04 437.375
DOVE 4 27 Aug 17:44:41 17:48:23 20° 60° (ENE) 17:52:08 437.250
CUTE-I 27 Aug 17:47:50 17:52:49 42° 68° (ENE) 17:57:50 437.470
NOAA 15 27 Aug 17:49:27 17:54:34 55° 70° (ENE) 17:59:43 137.62
Cosmos 2504 27 Aug 17:53:06 17:59:22 30° 66° (ENE) 18:05:28 435.465 / 435.565
AO-7 27 Aug 17:53:44 17:58:31 16° 273° (W) 18:03:20 29.400- 29.500
BEESAT 2 27 Aug 17:55:23 17:58:31 21° 39° (NE) 18:01:39 435.950
STARS 27 Aug 17:56:02 18:00:27 71° 286° (WNW) 18:04:48 437.465
BRITE-PL 27 Aug 17:58:43 18:03:37 87° 258° (WSW) 18:08:57 437.365/2234.400
LilacSat-2 27 Aug 18:08:31 18:12:16 54° 73° (ENE) 18:16:01 437.200
BEESAT 3 27 Aug 18:13:28 18:17:20 46° 49° (NE) 18:21:09 437.485
HO-68 27 Aug 18:13:44 18:18:45 21° 51° (NE) 18:23:46 435.675
NOAA 18 27 Aug 18:26:08 18:31:41 82° 73° (ENE) 18:37:14 137.9125
CINEMA 3 27 Aug 18:27:30 18:30:16 15° 59° (ENE) 18:33:00 145.822/145.860
CUBESAT XI-V 27 Aug 18:43:36 18:48:17 68° 287° (WNW) 18:52:58 437.345
SEEDS 27 Aug 18:54:13 18:55:29 11° 59° (ENE) 18:56:46 437.485
KKS-1 27 Aug 18:58:35 18:59:57 11° 303° (WNW) 19:01:18 437.445
Cosmos 2491 27 Aug 19:12:22 19:21:06 79° 280° (W) 19:29:56 435.465 / 435.565
CANX-2 27 Aug 19:12:57 19:16:28 26° 67° (ENE) 19:19:59 2200.000
GOMX 1 27 Aug 19:13:48 19:18:35 40° 265° (W) 19:23:38 467.674
Cubesat XI-IV 27 Aug 19:16:04 19:20:59 37° 263° (W) 19:25:55 437.490
CUTE 1.7 + AOD 2 27 Aug 19:19:03 19:22:35 27° 67° (ENE) 19:26:08 437.475
DOVE 4 27 Aug 19:20:21 19:25:30 68° 259° (W) 19:30:50 437.250
AAUSAT CUBESAT 2 27 Aug 19:24:51 19:26:47 13° 61° (ENE) 19:28:42 437.432
CUTE-I 27 Aug 19:28:25 19:33:00 29° 265° (W) 19:37:37 437.470
YUBILEINY 27 Aug 19:30:00 19:37:24 32° 278° (W) 19:44:46 435.215
NOAA 15 27 Aug 19:30:40 19:34:41 22° 268° (W) 19:38:44 137.62
COMPASS 1 27 Aug 19:31:42 19:34:36 19° 64° (ENE) 19:37:31 437.405
BEESAT 2 27 Aug 19:32:42 19:36:39 55° 239° (WSW) 19:40:33 435.950
PCSat 27 Aug 19:37:34 19:41:44 22° 38° (NE) 19:45:53 145.827
BRITE-PL 27 Aug 19:41:16 19:43:00 12° 277° (W) 19:44:47 437.365/2234.400
LilacSat-2 27 Aug 19:45:06 19:46:54 13° 270° (W) 19:48:41 437.200
Cosmos 2504 27 Aug 19:46:07 19:53:11 56° 268° (W) 20:00:07 435.465 / 435.565
BEESAT 3 27 Aug 19:51:48 19:54:42 20° 247° (WSW) 19:57:35 437.485
HO-68 27 Aug 19:58:18 20:05:31 85° 72° (ENE) 20:12:46 435.675
STRAND 1 27 Aug 20:01:34 20:06:26 43° 99° (E) 20:11:16 437.568
CINEMA 3 27 Aug 20:01:42 20:06:45 85° 257° (WSW) 20:11:44 145.822/145.860
AIST 2 27 Aug 20:06:01 20:09:21 22° 39° (NE) 20:12:41 435.215
Oscar 11 27 Aug 20:06:06 20:08:41 16° 62° (ENE) 20:11:17 145.826/435.025
NOAA 18 27 Aug 20:09:49 20:12:59 15° 271° (W) 20:16:11 137.9125
FUNcube-1 27 Aug 20:13:07 20:16:03 18° 63° (ENE) 20:18:57 145.935
UWE-3 27 Aug 20:18:42 20:22:42 31° 68° (ENE) 20:26:39 435.000/436.395/437.385
CUBEBUG 2 27 Aug 20:20:28 20:24:56 47° 71° (ENE) 20:29:20 437.445
AIST 1 27 Aug 20:23:49 20:28:07 48° 77° (ENE) 20:32:21
SEEDS 27 Aug 20:26:23 20:30:33 84° 259° (W) 20:34:44 437.485
ZACube-1 27 Aug 20:33:32 20:37:21 29° 67° (ENE) 20:41:07 437.345
CANX-2 27 Aug 20:48:30 20:52:14 31° 264° (W) 20:55:59 2200.000
CUTE 1.7 + AOD 2 27 Aug 20:54:38 20:58:21 30° 264° (W) 21:02:05 437.475
AAUSAT CUBESAT 2 27 Aug 20:57:38 21:01:44 69° 259° (W) 21:05:51 437.432
DELFI C3 27 Aug 21:02:24 21:05:30 23° 66° (ENE) 21:08:38 145.870
COMPASS 1 27 Aug 21:05:55 21:09:52 44° 262° (W) 21:13:51 437.405
Cosmos 2491 27 Aug 21:13:39 21:19:34 19° 304° (NW) 21:25:33 435.465 / 435.565
PCSat 27 Aug 21:20:22 21:25:50 85° 240° (WSW) 21:31:15 145.827
HUMSAT D 27 Aug 21:20:40 21:23:39 19° 64° (ENE) 21:26:37 437.325/437.525
AUBIESAT-1 27 Aug 21:29:05 21:31:25 14° 53° (NE) 21:33:44 437.475
M-CUBED/EXP-1 PRIME 27 Aug 21:33:48 21:36:58 18° 55° (NE) 21:40:07 437.505
PRISM 27 Aug 21:37:45 21:41:48 46° 100° (E) 21:45:50 437.425
Oscar 11 27 Aug 21:40:07 21:44:22 60° 259° (W) 21:48:39 145.826/435.025
STRAND 1 27 Aug 21:41:08 21:45:25 28° 296° (WNW) 21:49:42 437.568
CINEMA 3 27 Aug 21:43:03 21:44:33 11° 274° (W) 21:46:04 145.822/145.860
AIST 2 27 Aug 21:44:03 21:48:10 56° 238° (WSW) 21:52:15 435.215
FUNcube-1 27 Aug 21:47:34 21:51:55 54° 260° (W) 21:56:12 145.935
GONETS M04 27 Aug 21:48:00 21:54:45 23° 59° (ENE) 22:01:26
HO-68 27 Aug 21:49:07 21:54:06 20° 271° (W) 21:59:06 435.675
UWE-3 27 Aug 21:55:09 21:59:09 30° 265° (W) 22:03:05 435.000/436.395/437.385
CUBEBUG 2 27 Aug 21:58:16 22:01:46 21° 268° (W) 22:05:13 437.445
AIST 1 27 Aug 22:02:25 22:05:19 17° 275° (W) 22:08:12
ESTCUBE 1 27 Aug 22:03:25 22:05:06 12° 57° (ENE) 22:06:47 437.505/2401.250
ZACube-1 27 Aug 22:09:37 22:13:35 31° 264° (W) 22:17:29 437.345
UNISAT 6 27 Aug 22:28:19 22:31:21 18° 91° (E) 22:34:21 437.425
DELFI C3 27 Aug 22:36:40 22:40:12 32° 264° (W) 22:43:46 145.870
Cosmos 2499 27 Aug 22:50:09 22:56:31 34° 69° (ENE) 23:02:51 435.465 / 435.565
O/OREOS (USA 219) 27 Aug 22:51:18 22:54:59 23° 52° (NE) 22:58:40 437.305
HUMSAT D 27 Aug 22:55:03 22:59:00 42° 262° (W) 23:02:57 437.325/437.525
VELOX 1 27 Aug 22:56:48 23:00:10 22° 63° (ENE) 23:03:34 145.980
CUBEBUG 1 27 Aug 22:58:17 23:01:55 26° 65° (ENE) 23:05:35 437.445
SO-50 27 Aug 23:00:13 23:02:58 15° 110° (ESE) 23:05:45 436.795
AUBIESAT-1 27 Aug 23:00:32 23:05:11 87° 70° (ENE) 23:09:50 437.475
ANTELSAT 27 Aug 23:04:31 23:08:39 42° 99° (E) 23:12:41 437.575/2403.000
PCSat 27 Aug 23:05:55 23:08:23 13° 257° (WSW) 23:10:50 145.827
M-CUBED/EXP-1 PRIME 27 Aug 23:06:17 23:10:58 71° 253° (WSW) 23:15:41 437.505
DX 1 27 Aug 23:13:43 23:17:05 22° 64° (ENE) 23:20:29 434.975-435.025
PRISM 27 Aug 23:13:50 23:16:48 19° 297° (WNW) 23:19:45 437.425
SPROUT 27 Aug 23:16:18 23:19:08 17° 62° (ENE) 23:21:58 437.525
50 SAT 27 Aug 23:24:50 23:28:03 32° 70° (ENE) 23:31:19 437.505
TIGRISAT 27 Aug 23:35:20 23:39:40 86° 107° (ESE) 23:43:54 435.000
ESTCUBE 1 27 Aug 23:36:43 23:41:12 90° 103° (ESE) 23:45:45 437.505/2401.250
DUCHIFAT 1 27 Aug 23:38:49 23:40:57 14° 90° (E) 23:43:03 145.980
QB50P2 27 Aug 23:41:05 23:43:56 17° 91° (E) 23:46:47 145.880/145.840
POLYITAN 1 27 Aug 23:43:36 23:46:27 18° 92° (E) 23:49:18 437.675
GONETS M04 27 Aug 23:43:57 23:52:53 89° 271° (W) 00:01:45
AISAT 27 Aug 23:44:31 23:48:55 64° 73° (ENE) 23:53:22 437.250
NANOSAT C BR1 27 Aug 23:51:53 23:55:01 20° 93° (E) 23:58:08 145.865
UKube-1 27 Aug 23:53:05 23:57:08 41° 70° (ENE) 00:01:14 .
UNISAT 6 28 Aug 00:04:13 00:08:20 44° 289° (WNW) 00:12:23 437.425
JAS-2 28 Aug 00:12:06 00:17:47 27° 93° (E) 00:23:55 435.910
CUSAT 1 28 Aug 00:23:12 00:26:08 49° 286° (WNW) 00:29:50 437.405
O/OREOS (USA 219) 28 Aug 00:30:14 00:34:39 47° 251° (WSW) 00:39:04 437.305
VELOX 1 28 Aug 00:32:06 00:36:21 44° 261° (W) 00:40:40 145.980
BUGSAT 1 28 Aug 00:32:32 00:35:47 22° 93° (E) 00:38:58 437.445
CUBEBUG 1 28 Aug 00:34:01 00:38:03 35° 263° (W) 00:42:09 437.445
RS-15 28 Aug 00:35:16 00:44:49 32° 103° (ESE) 00:54:42 29.354- 29.394
QB50P1 28 Aug 00:35:17 00:39:29 61° 101° (E) 00:43:38 145.935-145.965
SO-50 28 Aug 00:38:00 00:42:52 81° 306° (NW) 00:47:42 436.795
AUBIESAT-1 28 Aug 00:38:21 00:40:10 12° 267° (W) 00:42:00 437.475
ANTELSAT 28 Aug 00:41:54 00:45:05 20° 296° (WNW) 00:48:14 437.575/2403.000
Cosmos 2499 28 Aug 00:43:07 00:49:49 47° 270° (W) 00:56:32 435.465 / 435.565
POPSAT HIP 1 28 Aug 00:45:18 00:49:33 77° 103° (ESE) 00:53:44 437.405
DX 1 28 Aug 00:48:53 00:53:02 42° 261° (W) 00:57:13 434.975-435.025
SWISSCUBE 28 Aug 00:49:38 00:50:49 11° 55° (NE) 00:52:00 437.505
SPROUT 28 Aug 00:50:27 00:54:40 54° 260° (W) 00:58:56 437.525
50 SAT 28 Aug 00:59:15 01:01:45 18° 267° (W) 01:04:16 437.505
BEESAT 28 Aug 01:05:21 01:07:45 14° 58° (ENE) 01:10:10 436.000
TISAT 1 28 Aug 01:08:45 01:12:55 56° 72° (ENE) 01:17:05 437.305
DUCHIFAT 1 28 Aug 01:12:53 01:17:03 60° 287° (WNW) 01:21:09 145.980
TIGRISAT 28 Aug 01:14:17 01:15:41 11° 302° (WNW) 01:17:04 435.000
QB50P2 28 Aug 01:15:56 01:20:00 47° 289° (WNW) 01:24:02 145.880/145.840
POLYITAN 1 28 Aug 01:18:27 01:22:31 46° 289° (WNW) 01:26:32 437.675
DANDE 28 Aug 01:22:42 01:25:00 27° 289° (WNW) 01:27:32 436.750
AISAT 28 Aug 01:23:24 01:25:50 14° 270° (W) 01:28:16 437.250
NANOSAT C BR1 28 Aug 01:26:58 01:30:56 40° 290° (WNW) 01:34:51 145.865
UKube-1 28 Aug 01:30:05 01:33:21 21° 267° (W) 01:36:40 .
Gurwin Techsat 1B 28 Aug 01:40:06 01:41:32 11° 86° (E) 01:42:58 435.225
GONETS M04 28 Aug 01:42:27 01:48:26 21° 284° (WNW) 01:54:25
ITUPSAT 1 28 Aug 01:50:41 01:54:56 33° 66° (ENE) 01:59:12 437.325
JAS-2 28 Aug 01:56:32 02:03:09 66° 289° (WNW) 02:10:32 435.910
Oscar 19 28 Aug 02:04:36 02:09:29 39° 97° (E) 02:14:19 437.125/150
BUGSAT 1 28 Aug 02:07:27 02:11:16 36° 291° (WNW) 02:15:01 437.445
QB50P1 28 Aug 02:12:21 02:14:48 15° 299° (WNW) 02:17:15 145.935-145.965
SO-50 28 Aug 02:20:40 02:24:05 19° 328° (NNW) 02:27:28 436.795
POPSAT HIP 1 28 Aug 02:22:56 02:24:44 13° 301° (WNW) 02:26:32 437.405
SWISSCUBE 28 Aug 02:23:02 02:27:46 74° 73° (ENE) 02:32:32 437.505
BEESAT 28 Aug 02:40:07 02:44:53 85° 255° (WSW) 02:49:40 436.000
RS-15 28 Aug 02:44:16 02:55:56 83° 307° (NW) 03:08:16 29.354- 29.394
KKS-1 28 Aug 02:45:35 02:48:13 16° 60° (ENE) 02:50:51 437.445
TISAT 1 28 Aug 02:46:24 02:48:54 15° 269° (W) 02:51:25 437.305
MOZHAYETS 4 28 Aug 02:52:25 02:55:51 21° 63° (ENE) 02:59:17
PHONESAT 2.4 28 Aug 02:54:20 02:56:33 19° 164° (SSE) 02:58:46 2401.200-2431.200
Gurwin Techsat 1B 28 Aug 03:16:58 03:22:21 80° 105° (ESE) 03:27:39 435.225
ITAMSAT 1 28 Aug 03:19:38 03:24:02 27° 95° (E) 03:28:25 435.822/435.867
STARS 28 Aug 03:20:20 03:23:14 17° 61° (ENE) 03:26:08 437.465
Cosmos 2491 28 Aug 03:24:43 03:29:14 15° 51° (NE) 03:33:44 435.465 / 435.565
ITUPSAT 1 28 Aug 03:28:34 03:32:46 31° 264° (W) 03:37:00 437.325
JAS-2 28 Aug 03:43:40 03:47:11 15° 307° (NW) 03:50:53 435.910
Oscar 19 28 Aug 03:44:09 03:48:41 31° 296° (WNW) 03:53:13 437.125/150
AO-7 28 Aug 03:55:10 04:02:25 32° 95° (E) 04:09:36 29.400- 29.500
SWISSCUBE 28 Aug 04:03:43 04:06:06 14° 271° (W) 04:08:30 437.505
CUBESAT XI-V 28 Aug 04:13:26 04:16:45 20° 62° (ENE) 04:20:05 437.345
KKS-1 28 Aug 04:19:47 04:24:15 68° 258° (WSW) 04:28:46 437.445
BEESAT 28 Aug 04:22:59 04:23:24 10° 273° (W) 04:23:48 436.000
MOZHAYETS 4 28 Aug 04:28:20 04:32:43 46° 261° (W) 04:37:08
PHONESAT 2.4 28 Aug 04:29:48 04:32:26 27° 181° (S) 04:35:02 2401.200-2431.200
AO-85 28 Aug 04:38:24 04:41:30 16° 110° (ESE) 04:44:32 145.980
YUBILEINY 28 Aug 04:45:56 04:49:42 13° 71° (ENE) 04:53:27 435.215
STARS 28 Aug 04:54:47 04:59:09 59° 259° (W) 05:03:34 437.465
Gurwin Techsat 1B 28 Aug 04:58:18 05:01:38 17° 303° (WNW) 05:04:59 435.225
ITAMSAT 1 28 Aug 04:58:46 05:03:39 43° 292° (WNW) 05:08:31 435.822/435.867
RS-15 28 Aug 04:59:35 05:10:29 38° 337° (NNW) 05:21:47 29.354- 29.394
Cosmos 2491 28 Aug 05:19:33 05:28:18 61° 76° (ENE) 05:37:01 435.465 / 435.565
HORYU 2 28 Aug 05:30:58 05:34:44 27° 95° (E) 05:38:28 437.375
STRAND 1 28 Aug 05:44:24 05:46:34 13° 55° (NE) 05:48:45 437.568
AO-7 28 Aug 05:47:31 05:55:42 65° 295° (WNW) 06:03:51 29.400- 29.500
SO-50 28 Aug 05:48:37 05:49:20 10° 17° (NNE) 05:50:04 436.795
CUBESAT XI-V 28 Aug 05:49:16 05:53:45 52° 260° (W) 05:58:19 437.345
BRITE-PL 28 Aug 06:01:00 06:05:59 30° 93° (E) 06:10:53 437.365/2234.400
NOAA 15 28 Aug 06:03:05 06:06:26 17° 90° (E) 06:09:46 137.62
CUTE-I 28 Aug 06:03:53 06:06:19 13° 87° (E) 06:08:44 437.470
PHONESAT 2.4 28 Aug 06:06:12 06:08:18 17° 197° (SSW) 06:10:22 2401.200-2431.200
AO-85 28 Aug 06:16:10 06:21:27 86° 307° (NW) 06:26:26 145.980
Cosmos 2504 28 Aug 06:35:15 06:41:34 25° 81° (E) 06:47:34 435.465 / 435.565
YUBILEINY 28 Aug 06:35:57 06:44:39 66° 92° (E) 06:53:22 435.215
NOAA 18 28 Aug 06:46:06 06:50:46 28° 95° (E) 06:55:21 137.9125
HORYU 2 28 Aug 07:07:21 07:11:19 33° 293° (WNW) 07:15:17 437.375
GOMX 1 28 Aug 07:12:43 07:18:07 59° 99° (E) 07:23:15 467.674
LilacSat-2 28 Aug 07:13:28 07:17:13 57° 101° (E) 07:20:55 437.200
RS-15 28 Aug 07:16:41 07:27:25 33° 11° (N) 07:38:14 29.354- 29.394
Cosmos 2491 28 Aug 07:17:04 07:24:38 34° 277° (W) 07:32:12 435.465 / 435.565
DOVE 4 28 Aug 07:17:28 07:21:56 30° 93° (E) 07:26:10 437.250
STRAND 1 28 Aug 07:19:50 07:24:55 79° 75° (ENE) 07:30:03 437.568
HO-68 28 Aug 07:25:48 07:29:02 13° 85° (E) 07:32:15 435.675
SO-50 28 Aug 07:27:12 07:31:20 30° 41° (NE) 07:35:22 436.795
Cubesat XI-IV 28 Aug 07:30:01 07:35:22 73° 103° (ESE) 07:40:40 437.490
BRITE-PL 28 Aug 07:39:09 07:44:34 46° 291° (WNW) 07:49:54 437.365/2234.400
NOAA 15 28 Aug 07:41:27 07:46:46 73° 287° (WNW) 07:52:03 137.62
CUTE-I 28 Aug 07:41:44 07:47:06 89° 287° (WNW) 07:52:25 437.470
AO-7 28 Aug 07:41:48 07:46:58 18° 317° (NW) 07:52:07 29.400- 29.500
CINEMA 3 28 Aug 07:55:15 07:58:28 19° 90° (E) 08:01:36 145.822/145.860
AO-85 28 Aug 07:58:49 08:02:34 20° 325° (NW) 08:06:10 145.980
SEEDS 28 Aug 08:09:08 08:11:18 14° 89° (E) 08:13:27 437.485
Cosmos 2504 28 Aug 08:25:48 08:34:13 75° 280° (W) 08:42:04 435.465 / 435.565
NOAA 18 28 Aug 08:26:23 08:31:36 46° 293° (WNW) 08:36:47 137.9125
PRISM 28 Aug 08:29:22 08:33:17 46° 71° (ENE) 08:37:15 437.425
CANX-2 28 Aug 08:30:24 08:34:20 36° 97° (E) 08:38:16 2200.000
YUBILEINY 28 Aug 08:34:26 08:42:06 32° 295° (WNW) 08:49:50 435.215
CUTE 1.7 + AOD 2 28 Aug 08:36:24 08:40:20 36° 97° (E) 08:44:16 437.475
AAUSAT CUBESAT 2 28 Aug 08:38:24 08:40:55 16° 90° (E) 08:43:27 437.432
COMPASS 1 28 Aug 08:46:21 08:49:44 23° 94° (E) 08:53:08 437.405
LilacSat-2 28 Aug 08:49:17 08:51:03 13° 298° (WNW) 08:52:50 437.200
GOMX 1 28 Aug 08:51:33 08:55:43 23° 299° (WNW) 08:59:47 467.674
DOVE 4 28 Aug 08:55:01 08:59:40 36° 293° (WNW) 09:04:05 437.250
AIST 1 28 Aug 08:56:10 08:59:43 25° 88° (E) 09:03:18
STRAND 1 28 Aug 09:02:02 09:04:43 14° 272° (W) 09:07:24 437.568
TIGRISAT 28 Aug 09:02:11 09:04:23 13° 59° (ENE) 09:06:33 435.000
ISS 28 Aug 09:02:25 09:05:23 33° 142° (SE) 09:08:24 145.825
SO-50 28 Aug 09:07:35 09:11:58 43° 241° (WSW) 09:16:13 436.795
CUSAT 1 28 Aug 09:09:04 09:13:54 22° 66° (ENE) 09:19:26 437.405
HO-68 28 Aug 09:10:48 09:18:00 72° 104° (ESE) 09:25:08 435.675
Cubesat XI-IV 28 Aug 09:11:17 09:14:52 19° 302° (WNW) 09:18:27 437.490
CUTE-I 28 Aug 09:23:28 09:26:24 15° 304° (NW) 09:29:19 437.470
NOAA 15 28 Aug 09:23:28 09:25:38 13° 306° (NW) 09:27:47 137.62
Oscar 11 28 Aug 09:25:20 09:28:35 20° 92° (E) 09:31:48 145.826/435.025
BEESAT 2 28 Aug 09:28:46 09:30:35 13° 110° (ESE) 09:32:24 435.950
UNISAT 6 28 Aug 09:29:14 09:32:56 25° 65° (ENE) 09:36:35 437.425
RS-15 28 Aug 09:30:55 09:43:09 60° 43° (NE) 09:55:15 29.354- 29.394
CINEMA 3 28 Aug 09:31:32 09:35:56 47° 289° (WNW) 09:40:07 145.822/145.860
FUNcube-1 28 Aug 09:33:34 09:36:49 22° 93° (E) 09:40:03 145.935
UWE-3 28 Aug 09:41:42 09:45:45 44° 98° (E) 09:49:42 435.000/436.395/437.385
SEEDS 28 Aug 09:43:14 09:47:23 60° 287° (WNW) 09:51:32 437.485
BEESAT 3 28 Aug 09:43:38 09:47:11 34° 118° (ESE) 09:50:45 437.485
CUBEBUG 2 28 Aug 09:45:16 09:49:32 73° 102° (ESE) 09:53:40 437.445
ZACube-1 28 Aug 09:54:56 09:58:52 39° 98° (E) 10:02:45 437.345
ANTELSAT 28 Aug 10:05:16 10:09:43 53° 72° (ENE) 10:14:07 437.575/2403.000
PRISM 28 Aug 10:06:07 10:08:50 17° 268° (W) 10:11:36 437.425
CANX-2 28 Aug 10:06:39 10:10:01 23° 294° (WNW) 10:13:23 2200.000
DANDE 28 Aug 10:11:23 10:15:38 24° 71° (ENE) 10:20:48 436.750
DELFI C3 28 Aug 10:11:27 10:14:49 25° 95° (E) 10:18:11 145.870
CUTE 1.7 + AOD 2 28 Aug 10:12:38 10:16:00 23° 294° (WNW) 10:19:21 437.475
AAUSAT CUBESAT 2 28 Aug 10:12:40 10:16:43 52° 288° (WNW) 10:20:46 437.432
COMPASS 1 28 Aug 10:21:35 10:25:21 34° 291° (WNW) 10:29:09 437.405
Cosmos 2504 28 Aug 10:23:58 10:28:58 17° 302° (WNW) 10:33:48 435.465 / 435.565
JAS-2 28 Aug 10:31:10 10:33:23 13° 51° (NE) 10:35:40 435.910
DUCHIFAT 1 28 Aug 10:33:10 10:35:42 16° 61° (ENE) 10:38:14 145.980
AIST 1 28 Aug 10:33:14 10:37:10 32° 287° (WNW) 10:41:09
TIGRISAT 28 Aug 10:35:53 10:40:28 81° 255° (WSW) 10:45:00 435.000
HUMSAT D 28 Aug 10:36:02 10:39:21 23° 94° (E) 10:42:39 437.325/437.525
QB50P2 28 Aug 10:36:09 10:39:14 20° 63° (ENE) 10:42:19 145.880/145.840
ISS 28 Aug 10:38:34 10:41:47 50° 340° (NNW) 10:45:01 145.825
POLYITAN 1 28 Aug 10:38:39 10:41:45 20° 64° (ENE) 10:44:52 437.675
NANOSAT C BR1 28 Aug 10:46:25 10:49:42 22° 65° (ENE) 10:52:59 145.865
CUSAT 1 28 Aug 10:50:01 10:56:21 81° 261° (W) 11:04:01 437.405
GONETS M04 28 Aug 10:54:22 11:00:37 22° 77° (ENE) 11:06:52
HO-68 28 Aug 10:59:21 11:05:08 27° 304° (NW) 11:10:52 435.675
Oscar 11 28 Aug 11:00:49 11:04:53 41° 290° (WNW) 11:08:57 145.826/435.025
BEESAT 2 28 Aug 11:03:55 11:07:51 70° 307° (NW) 11:11:51 435.950
UNISAT 6 28 Aug 11:05:09 11:09:28 39° 262° (W) 11:13:43 437.425
FUNcube-1 28 Aug 11:09:23 11:13:11 35° 291° (WNW) 11:16:56 145.935
UWE-3 28 Aug 11:18:56 11:21:54 19° 297° (WNW) 11:24:51 435.000/436.395/437.385
BEESAT 3 28 Aug 11:21:25 11:24:53 29° 317° (NW) 11:28:21 437.485
CUBEBUG 2 28 Aug 11:23:40 11:25:34 13° 301° (WNW) 11:27:26 437.445
BUGSAT 1 28 Aug 11:24:34 11:27:54 23° 65° (ENE) 11:31:16 437.445
ESTCUBE 1 28 Aug 11:27:47 11:30:36 16° 90° (E) 11:33:24 437.505/2401.250
QB50P1 28 Aug 11:29:44 11:33:57 62° 73° (ENE) 11:38:12 145.935-145.965
Cosmos 2499 28 Aug 11:30:26 11:36:50 27° 83° (E) 11:42:52 435.465 / 435.565
ZACube-1 28 Aug 11:31:49 11:34:55 21° 296° (WNW) 11:38:01 437.345
POPSAT HIP 1 28 Aug 11:39:45 11:44:02 78° 76° (ENE) 11:48:20 437.405
ANTELSAT 28 Aug 11:43:37 11:46:43 18° 269° (W) 11:49:48 437.575/2403.000
RS-15 28 Aug 11:43:55 11:55:40 53° 248° (WSW) 12:07:12 29.354- 29.394
AIST 2 28 Aug 11:45:15 11:47:42 16° 111° (ESE) 11:50:10 435.215
DELFI C3 28 Aug 11:46:11 11:49:39 29° 292° (WNW) 11:53:08 145.870
Oscar 19 28 Aug 11:48:36 11:50:30 12° 54° (NE) 11:52:24 437.125/150
DANDE 28 Aug 11:53:17 11:58:31 60° 262° (W) 12:05:20 436.750
PCSat 28 Aug 12:04:17 12:09:32 53° 116° (ESE) 12:14:49 145.827
DUCHIFAT 1 28 Aug 12:06:44 12:10:56 60° 259° (W) 12:15:10 145.980
QB50P2 28 Aug 12:10:37 12:14:44 46° 261° (W) 12:18:52 145.880/145.840
HUMSAT D 28 Aug 12:11:23 12:15:02 32° 291° (WNW) 12:18:41 437.325/437.525
AUBIESAT-1 28 Aug 12:12:02 12:15:55 40° 103° (ESE) 12:19:28 437.475
JAS-2 28 Aug 12:12:10 12:17:22 75° 74° (ENE) 12:23:01 435.910
POLYITAN 1 28 Aug 12:13:09 12:17:16 45° 261° (W) 12:21:23 437.675
ISS 28 Aug 12:15:46 12:18:43 29° 0° (N) 12:21:40 145.825
M-CUBED/EXP-1 PRIME 28 Aug 12:18:15 12:22:23 59° 106° (ESE) 12:26:10 437.505
VELOX 1 28 Aug 12:19:43 12:23:34 28° 95° (E) 12:27:25 145.980
CUBEBUG 1 28 Aug 12:19:45 12:23:49 34° 97° (E) 12:27:50 437.445
NANOSAT C BR1 28 Aug 12:21:11 12:25:12 40° 262° (W) 12:29:14 145.865
50 SAT 28 Aug 12:23:49 12:27:01 28° 97° (E) 12:30:11 437.505
CUSAT 1 28 Aug 12:33:56 12:37:46 16° 276° (W) 12:41:57 437.405
SPROUT 28 Aug 12:34:23 12:37:39 21° 93° (E) 12:40:54 437.525
DX 1 28 Aug 12:34:34 12:38:19 27° 95° (E) 12:42:02 434.975-435.025
BEESAT 2 28 Aug 12:44:25 12:46:26 13° 328° (NNW) 12:48:27 435.950
GONETS M04 28 Aug 12:47:29 12:56:16 86° 278° (W) 13:05:10
BUGSAT 1 28 Aug 12:59:07 13:03:05 37° 262° (W) 13:07:04 437.445
Gurwin Techsat 1B 28 Aug 13:02:12 13:06:26 25° 62° (ENE) 13:10:42 435.225
ESTCUBE 1 28 Aug 13:03:18 13:07:48 59° 287° (WNW) 13:12:15 437.505/2401.250
AO-85 28 Aug 13:06:07 13:09:51 26° 39° (NE) 13:13:21 145.980
QB50P1 28 Aug 13:07:58 13:10:09 14° 270° (W) 13:12:20 145.935-145.965
O/OREOS (USA 219) 28 Aug 13:07:58 13:10:19 14° 98° (E) 13:12:40 437.305
AISAT 28 Aug 13:08:23 13:12:53 89° 304° (NW) 13:17:21 437.250
AO-7 28 Aug 13:09:04 13:13:36 16° 40° (NE) 13:18:08 29.400- 29.500
UKube-1 28 Aug 13:13:15 13:17:30 52° 101° (E) 13:21:44 .
POPSAT HIP 1 28 Aug 13:19:15 13:20:22 11° 272° (W) 13:21:29 437.405
Cosmos 2499 28 Aug 13:21:21 13:29:24 66° 282° (WNW) 13:36:53 435.465 / 435.565
AIST 2 28 Aug 13:21:38 13:25:43 62° 309° (NW) 13:29:50 435.215
Oscar 19 28 Aug 13:23:46 13:28:54 72° 73° (ENE) 13:34:06 437.125/150
AUBIESAT-1 28 Aug 13:47:00 13:50:05 21° 303° (WNW) 13:53:01 437.475
PCSat 28 Aug 13:48:26 13:53:12 30° 316° (NW) 13:58:00 145.827
ISS 28 Aug 13:52:25 13:55:39 50° 20° (NNE) 13:58:52 145.825
M-CUBED/EXP-1 PRIME 28 Aug 13:53:47 13:56:24 16° 306° (NW) 13:58:53 437.505
VELOX 1 28 Aug 13:56:03 14:00:03 33° 293° (WNW) 14:04:01 145.980
CUBEBUG 1 28 Aug 13:56:15 13:59:58 27° 294° (WNW) 14:03:40 437.445
50 SAT 28 Aug 13:57:36 14:00:28 22° 293° (WNW) 14:03:19 437.505
JAS-2 28 Aug 14:00:24 14:03:19 15° 274° (W) 14:06:22 435.910
RS-15 28 Aug 14:02:26 14:04:56 11° 271° (W) 14:07:26 29.354- 29.394
SPROUT 28 Aug 14:09:45 14:13:45 40° 290° (WNW) 14:17:44 437.525
DX 1 28 Aug 14:10:35 14:14:32 33° 293° (WNW) 14:18:27 434.975-435.025
SWISSCUBE 28 Aug 14:21:54 14:24:44 15° 90° (E) 14:27:33 437.505
TISAT 1 28 Aug 14:25:33 14:29:46 70° 103° (ESE) 14:33:55 437.305
BEESAT 28 Aug 14:38:25 14:41:56 20° 92° (E) 14:45:25 436.000
ITAMSAT 1 28 Aug 14:39:51 14:44:53 54° 70° (ENE) 14:49:57 435.822/435.867
Gurwin Techsat 1B 28 Aug 14:40:54 14:46:04 52° 260° (W) 14:51:17 435.225
O/OREOS (USA 219) 28 Aug 14:44:40 14:49:08 67° 297° (WNW) 14:53:40 437.305
AO-85 28 Aug 14:46:24 14:50:31 45° 241° (WSW) 14:54:20 145.980
AISAT 28 Aug 14:47:01 14:48:40 12° 303° (WNW) 14:50:17 437.250
GONETS M04 28 Aug 14:48:12 14:54:33 21° 302° (WNW) 15:00:58
UKube-1 28 Aug 14:50:12 14:53:10 18° 298° (WNW) 14:56:07 .
AO-7 28 Aug 14:56:33 15:04:37 56° 62° (ENE) 15:12:41 29.400- 29.500
AIST 2 28 Aug 15:03:01 15:05:02 13° 330° (NNW) 15:07:04 435.215
Oscar 19 28 Aug 15:05:38 15:08:47 16° 271° (W) 15:11:57 437.125/150
Cosmos 2499 28 Aug 15:20:15 15:24:03 14° 304° (NW) 15:27:46 435.465 / 435.565
ITUPSAT 1 28 Aug 15:25:38 15:30:19 55° 100° (E) 15:35:00 437.325
ISS 28 Aug 15:29:03 15:32:02 32° 218° (SW) 15:35:00 145.825
PCSat 28 Aug 15:37:52 15:38:29 10° 341° (NNW) 15:39:04 145.827
SWISSCUBE 28 Aug 15:58:14 16:02:59 66° 287° (WNW) 16:07:42 437.505
TISAT 1 28 Aug 16:02:47 16:04:52 14° 300° (WNW) 16:06:56 437.305
KKS-1 28 Aug 16:09:00 16:12:12 19° 92° (E) 16:15:22 437.445
BEESAT 28 Aug 16:15:23 16:20:00 50° 290° (WNW) 16:24:36 436.000
MOZHAYETS 4 28 Aug 16:20:39 16:24:48 33° 96° (E) 16:28:56
ITAMSAT 1 28 Aug 16:20:45 16:24:41 22° 268° (W) 16:28:38 435.822/435.867
BEESAT 3 28 Aug 16:22:25 16:23:21 11° 28° (NNE) 16:24:17 437.485
O/OREOS (USA 219) 28 Aug 16:28:08 16:29:28 11° 318° (NW) 16:30:49 437.305
HORYU 2 28 Aug 16:31:10 16:35:13 35° 67° (ENE) 16:39:15 437.375
Cosmos 2491 28 Aug 16:33:52 16:37:10 13° 70° (ENE) 16:40:26 435.465 / 435.565
NOAA 18 28 Aug 16:38:22 16:40:26 12° 52° (NE) 16:42:31 137.9125
